{"data":{"norad_id":68868,"intl_designator":"2026-095E","name":"KUIPER-00375","alt_names":[],"object_type":"PAYLOAD","status":"ACTIVE","operator":null,"country":"US","launch_date":"2026-04-28","launch_site_code":"AFETR","launch_vehicle":null,"mission":null,"orbit_class":"UNKNOWN","rcs_meters":null,"size_class":null,"mass_kg":null,"dimensions":null,"purposes":[],"wikipedia_slug":null,"has_3d_model":false,"image_url":null,"decayed_at":null,"tle_current":{"epoch":"2026-09-19T11:37:23.398176Z","epoch_age_seconds":103285,"freshness":"FRESH","line1":"1 68868U 26095E   26262.48429859 -.00000009  00000+0  27804-4 0  9999","line2":"2 68868  51.9016 181.1808 0000523 104.5867 255.5153 14.79934886 21758","mean_motion":14.79934886,"eccentricity":5.23e-5,"inclination_deg":51.9016,"raan_deg":181.1808,"arg_perigee_deg":104.5867,"mean_anomaly_deg":255.5153,"bstar":2.7804e-5,"rev_number":2175,"period_min":97.301578172271,"perigee_km":629.16317457954,"apogee_km":629.8961765138,"semimajor_km":7007.6666755467,"source":"CELESTRAK","updated_at":"2026-09-20T09:00:24.507978Z"}}}